Find Starlink 34516

NORAD ID: 64605 Int'l Des: 2025-137 Owner: SPXS Country: US Constellation: starlink operational
LEOCIRCULAR

当前视图

正在加载3D地球...

About Starlink 34516

Starlink 34516 (NORAD 64605) is a starlink constellation satellite (v2 mini) launched Jun 25, 2025 by SPXS of US. It operates in LEO, CIRCULAR orbit with a mass of 575.00 kg.

即将过境

Passes for default location (London). Set your location on the main map for personalized predictions.

高度历史

Loading altitude history...

两行轨道根数

1 64605U 25137M 26237.50442444 .00014407 00000-0 47498-3 0 9997
2 64605 53.1576 269.5181 0000977 72.6435 287.4673 15.31709703 66704
Epoch: Aug 25, 2026 • Age: 21 hours

当前状态

高度 476.6 km
远地点 / 近地点 N/A
速度 7.63 km/s
星下点 53.30°N, 113.14°W
发射日期 Jun 25, 2025
运行时间 1.1 years
类型 internet

技术详情

分类 Payload
质量 575.00 kg
干质量 530.00 kg
总质量 575.00 kg
长度 0.30 m
直径 4.10 m
跨度 29.00 m
形状 Box + pan
制造商 SPXS
平台类型 Starlink V2MO
阶段状态 In Orbit
所有者/国家 SPXS/US

Most Searched